Location: Cuiry
(49.3858°N, 3.7708°E)
Time: 20:57:29
(UTC+00:00)

Cosmos 1954 Rocket - Pass Details

Date: 12 January 2026
Orbit: 747 x 777 km, 74.0° (Epoch: 16 February)

Event Time Altitude Azimuth Distance (km) Brightness Sun altitude
Rises 16:41:38 0° 339° (NNW) 3,217 7.2 -5.3°
Reaches altitude 10° 16:44:04 10° 344° (NNW) 2,292 6.4 -5.7°
Maximum altitude 16:49:08 52° 61° (ENE) 941 4.1 -6.4°
Drops below altitude 10° 16:54:13 10° 138° (SE) 2,296 6.3 -7.2°
Sets 16:56:39 0° 143° (SE) 3,223 7.1 -7.5°
